Flag for Grenada Weather past 2 weeks in Saint George's, Grenada

Now
82 °F

Scattered clouds.


Feels Like: 89 °F
Forecast: 75 / 81 °F
Wind: 13 mph from East

Location: Point Salines Airport

Current Time: Jun 3, 2015 at 9:39:14 AM

Latest Report: Jun 3, 2015 at 8:00 AM


Visibility: N/A

Pressure: 29.95 "Hg

Humidity: 79%

Dew point: 75 °F

Location of Saint George'sLocation

Historic Weather in Saint George's — Graph

°F

Saint George's temperature yesterday

Maximum temperature yesterday: 88 °F (at 12:00 PM)
Minimum temperature yesterday: 79 °F (at 1:00 AM)
Average temperature yesterday: 82 °F

Past Weeks' High & Low Weather Summary

 TemperatureHumidityPressure
High88 °F (May 22, 12:00 PM)100% (Jun 1, 5:00 AM)30.07 "Hg (Jun 1, 5:00 AM)
Low75 °F (Jun 1, 5:00 AM)59% (May 24, 1:00 PM)29.86 "Hg (May 27, 5:00 PM)
Average82 °F80%29.95 "Hg
* Reported May 19 8:00 AM — Jun 3 8:00 AM, Saint George's, Weather by CustomWeather, © 2015

Note: Actual official high and low records may vary slightly from our data, if they occured in-between our weather recording intervals... More about our weather records

Advertising

Saint George's weather history for previous 24 hours

 ConditionsComfort  
Time TempWeatherWind HumidityBarometerVisibility
8:00 AM
Wed, Jun 3
82 °FScattered clouds.13 mph79%29.95 "HgN/A
7:00 AM81 °FScattered clouds.9 mph79%29.95 "HgN/A
6:00 AM81 °FPassing clouds.10 mph84%29.92 "HgN/A
5:00 AM79 °FPassing clouds.9 mph89%29.92 "HgN/A
4:00 AM81 °FLight rain. Passing clouds.9 mph84%29.92 "HgN/A
3:00 AM81 °FPassing clouds.12 mph84%29.92 "HgN/A
2:00 AM81 °FPartly cloudy.10 mph84%29.92 "HgN/A
1:00 AM81 °FPassing clouds.12 mph84%29.92 "HgN/A
12:00 AM81 °FPassing clouds.12 mph84%29.92 "HgN/A
11:00 PM
Tue, Jun 2
81 °FPassing clouds.10 mph84%29.92 "HgN/A
10:00 PM81 °FPassing clouds.7 mph84%29.92 "HgN/A
9:00 PM81 °FPassing clouds.9 mph84%29.92 "HgN/A
8:00 PM81 °FPassing clouds.9 mph79%29.89 "HgN/A
7:00 PM81 °FPassing clouds.9 mph79%29.89 "HgN/A
6:00 PM82 °FPassing clouds.9 mph79%29.89 "HgN/A
5:00 PM82 °FPassing clouds.7 mph79%29.86 "HgN/A
4:00 PM84 °FPassing clouds.15 mph74%29.86 "HgN/A
3:00 PM86 °FPartly sunny.9 mph70%29.89 "HgN/A
2:00 PM86 °FPartly sunny.12 mph70%29.92 "HgN/A
1:00 PM86 °FPartly sunny.9 mph66%29.95 "HgN/A
12:00 PM88 °FPassing clouds.12 mph62%29.98 "HgN/A
11:00 AM86 °FScattered clouds.14 mph66%29.98 "HgN/A
10:00 AM84 °FPassing clouds.12 mph74%29.98 "HgN/A
9:00 AM84 °FPassing clouds.14 mph74%29.98 "HgN/A
Weather by CustomWeather, © 2015

See weather overviewHow to use our weather pages